| time (UTC) | temp F | wind direction | speed knots | gust knots | rain 1hr in | rain 24hr in | rain mn in | humidity % | barometer mb |
| 20260505100402 | 60 | 59 | 0.0 | 0.9 | 0.00 | 0.00 | 0.00 | 75 | 1012.5 |
| 20260505095857 | 60 | 60 | 0.0 | 0.9 | 0.00 | 0.00 | 0.00 | 75 | 1012.3 |
| 20260505095355 | 60 | 60 | 0.9 | 0.9 | 0.00 | 0.00 | 0.00 | 75 | 1012.1 |
| 20260505094851 | 60 | 59 | 0.0 | 0.9 | 0.00 | 0.00 | 0.00 | 75 | 1012.0 |
| 20260505094348 | 60 | 60 | 0.9 | 0.9 | 0.00 | 0.00 | 0.00 | 75 | 1012.3 |
| 20260505093844 | 60 | 61 | 0.0 | 0.9 | 0.00 | 0.00 | 0.00 | 75 | 1012.3 |
| 20260505093341 | 60 | 61 | 0.0 | 0.9 | 0.00 | 0.00 | 0.00 | 75 | 1012.0 |
| 20260505092838 | 60 | 61 | 0.0 | 0.9 | 0.00 | 0.00 | 0.00 | 75 | 1011.9 |
| 20260505092337 | 60 | 62 | 0.0 | 0.9 | 0.00 | 0.00 | 0.00 | 75 | 1012.0 |
| 20260505091833 | 60 | 61 | 0.9 | 0.9 | 0.00 | 0.00 | 0.00 | 75 | 1012.1 |
| 20260505091331 | 60 | 62 | 0.0 | 0.9 | 0.00 | 0.00 | 0.00 | 75 | 1011.7 |
| 20260505090829 | 60 | 61 | 0.0 | 0.9 | 0.00 | 0.00 | 0.00 | 75 | 1011.9 |
| 20260505090327 | 60 | 62 | 0.0 | 0.9 | 0.00 | 0.00 | 0.00 | 76 | 1011.9 |
| 20260505085824 | 60 | 62 | 0.0 | 0.9 | 0.00 | 0.00 | 0.00 | 77 | 1012.0 |
| 20260505085322 | 60 | 62 | 0.0 | 0.9 | 0.00 | 0.00 | 0.00 | 77 | 1012.0 |
| 20260505084819 | 59 | 62 | 0.0 | 0.9 | 0.00 | 0.00 | 0.00 | 78 | 1011.8 |
| 20260505084318 | 59 | 62 | 0.0 | 0.0 | 0.00 | 0.00 | 0.00 | 78 | 1011.8 |
| 20260505083814 | 59 | 62 | 0.0 | 0.9 | 0.00 | 0.00 | 0.00 | 79 | 1011.8 |
| 20260505083312 | 59 | 62 | 0.0 | 0.0 | 0.00 | 0.00 | 0.00 | 80 | 1012.0 |
| 20260505082808 | 59 | 62 | 0.0 | 0.0 | 0.00 | 0.00 | 0.00 | 80 | 1012.0 |
| 20260505082305 | 59 | 62 | 0.0 | 0.0 | 0.00 | 0.00 | 0.00 | 80 | 1011.9 |
| 20260505081801 | 59 | 62 | 0.0 | 0.0 | 0.00 | 0.00 | 0.00 | 80 | 1011.9 |
| 20260505081258 | 59 | 62 | 0.0 | 0.0 | 0.00 | 0.00 | 0.00 | 79 | 1012.1 |
| 20260505080755 | 60 | 62 | 0.0 | 0.0 | 0.00 | 0.00 | 0.00 | 79 | 1012.0 |
| 20260505080250 | 60 | 62 | 0.0 | 0.0 | 0.00 | 0.00 | 0.00 | 78 | 1012.0 |
| 20260505075746 | 60 | 62 | 0.0 | 0.0 | 0.00 | 0.00 | 0.00 | 78 | 1011.9 |
| 20260505075244 | 59 | 62 | 0.0 | 0.0 | 0.00 | 0.00 | 0.00 | 79 | 1011.9 |
| 20260505074741 | 60 | 62 | 0.0 | 0.0 | 0.00 | 0.00 | 0.00 | 78 | 1011.7 |
| 20260505074238 | 60 | 62 | 0.0 | 0.0 | 0.00 | 0.00 | 0.00 | 78 | 1011.9 |
| 20260505073735 | 60 | 62 | 0.0 | 0.0 | 0.00 | 0.00 | 0.00 | 77 | 1012.0 |
| 20260505073233 | 60 | 62 | 0.0 | 0.0 | 0.00 | 0.00 | 0.00 | 76 | 1011.8 |
| 20260505072730 | 60 | 62 | 0.0 | 0.0 | 0.00 | 0.00 | 0.00 | 76 | 1011.9 |
| 20260505072226 | 61 | 62 | 0.0 | 0.0 | 0.00 | 0.00 | 0.00 | 76 | 1011.9 |
| 20260505071721 | 61 | 62 | 0.0 | 0.0 | 0.00 | 0.00 | 0.00 | 76 | 1012.1 |
| 20260505071219 | 61 | 62 | 0.0 | 0.0 | 0.00 | 0.00 | 0.00 | 76 | 1012.0 |
| 20260505070716 | 61 | 62 | 0.0 | 0.0 | 0.00 | 0.00 | 0.00 | 76 | 1011.8 |
| 20260505070212 | 61 | 62 | 0.0 | 0.0 | 0.00 | 0.00 | 0.00 | 76 | 1011.7 |
| 20260505065708 | 61 | 62 | 0.0 | 0.0 | 0.00 | 0.00 | 0.00 | 75 | 1011.9 |
| 20260505065205 | 61 | 62 | 0.0 | 0.0 | 0.00 | 0.00 | 0.00 | 75 | 1011.7 |
| 20260505064702 | 61 | 62 | 0.0 | 0.0 | 0.00 | 0.00 | 0.00 | 74 | 1011.7 |
| 20260505064200 | 61 | 62 | 0.0 | 0.0 | 0.00 | 0.00 | 0.00 | 74 | 1011.6 |
| 20260505063657 | 61 | 62 | 0.0 | 0.0 | 0.00 | 0.00 | 0.00 | 75 | 1011.7 |
| 20260505063153 | 61 | 62 | 0.0 | 0.9 | 0.00 | 0.00 | 0.00 | 75 | 1011.7 |
| 20260505062649 | 61 | 63 | 0.0 | 0.9 | 0.00 | 0.00 | 0.00 | 75 | 1011.6 |
| 20260505062147 | 61 | 62 | 0.0 | 0.9 | 0.00 | 0.00 | 0.00 | 74 | 1011.6 |
| 20260505061644 | 61 | 61 | 0.0 | 0.9 | 0.00 | 0.00 | 0.00 | 75 | 1011.8 |
| 20260505061142 | 61 | 67 | 0.0 | 0.0 | 0.00 | 0.00 | 0.00 | 75 | 1011.6 |
| 20260505060639 | 61 | 67 | 0.0 | 0.9 | 0.00 | 0.00 | 0.00 | 74 | 1011.8 |
| 20260505060136 | 61 | 56 | 0.0 | 0.9 | 0.00 | 0.00 | 0.00 | 74 | 1011.8 |
| 20260505055631 | 60 | 57 | 0.0 | 1.7 | 0.00 | 0.00 | 0.00 | 75 | 1011.7 |
| 20260505055128 | 60 | 74 | 0.0 | 0.0 | 0.00 | 0.00 | 0.00 | 76 | 1011.7 |
| 20260505054626 | 60 | 73 | 0.0 | 0.9 | 0.00 | 0.00 | 0.00 | 75 | 1011.8 |
| 20260505054124 | 60 | 73 | 0.0 | 0.0 | 0.00 | 0.00 | 0.00 | 74 | 1011.8 |
| 20260505053621 | 60 | 73 | 0.9 | 0.9 | 0.00 | 0.00 | 0.00 | 74 | 1012.0 |
| 20260505053117 | 60 | 74 | 0.0 | 0.0 | 0.00 | 0.00 | 0.00 | 74 | 1011.8 |
| 20260505052614 | 60 | 74 | 0.0 | 0.0 | 0.00 | 0.00 | 0.00 | 73 | 1011.7 |
| 20260505052112 | 60 | 74 | 0.0 | 0.9 | 0.00 | 0.00 | 0.00 | 73 | 1011.7 |
| 20260505051608 | 61 | 74 | 0.0 | 0.0 | 0.00 | 0.00 | 0.00 | 72 | 1011.8 |
| 20260505051107 | 61 | 73 | 0.0 | 0.9 | 0.00 | 0.00 | 0.00 | 71 | 1011.9 |
| 20260505050604 | 61 | 73 | 0.0 | 0.9 | 0.00 | 0.00 | 0.00 | 71 | 1011.8 |
| 20260505041532 | 61 | 80 | 0.0 | 0.0 | 0.00 | 0.00 | 0.00 | 69 | 1011.8 |
| 20260505041029 | 61 | 80 | 0.0 | 0.9 | 0.00 | 0.00 | 0.00 | 69 | 1011.8 |
| 20260505040526 | 61 | 80 | 0.0 | 0.0 | 0.00 | 0.00 | 0.00 | 69 | 1011.7 |
| 20260505040024 | 61 | 79 | 0.0 | 0.0 | 0.00 | 0.00 | 0.00 | 68 | 1011.7 |
| 20260505035519 | 61 | 79 | 0.0 | 0.0 | 0.00 | 0.00 | 0.00 | 67 | 1011.8 |
| 20260505035016 | 60 | 84 | 0.0 | 0.9 | 0.00 | 0.00 | 0.00 | 68 | 1011.7 |
| 20260505034513 | 61 | 83 | 0.0 | 0.0 | 0.00 | 0.00 | 0.00 | 68 | 1011.9 |
| 20260505034010 | 61 | 83 | 0.0 | 0.0 | 0.00 | 0.00 | 0.00 | 68 | 1011.6 |
| 20260505033507 | 61 | 83 | 0.0 | 0.0 | 0.00 | 0.00 | 0.00 | 66 | 1011.6 |
| 20260505033005 | 61 | 83 | 0.0 | 0.0 | 0.00 | 0.00 | 0.00 | 66 | 1011.9 |
| 20260505032502 | 62 | 83 | 0.0 | 0.0 | 0.00 | 0.00 | 0.00 | 66 | 1011.7 |
| 20260505031958 | 62 | 83 | 0.0 | 0.0 | 0.00 | 0.00 | 0.00 | 65 | 1011.5 |
| 20260505031455 | 62 | 83 | 0.0 | 0.0 | 0.00 | 0.00 | 0.00 | 63 | 1011.6 |
| 20260505030952 | 62 | 83 | 0.0 | 0.0 | 0.00 | 0.00 | 0.00 | 63 | 1011.7 |
| 20260505030449 | 62 | 84 | 0.0 | 0.0 | 0.00 | 0.00 | 0.00 | 62 | 1011.9 |
| 20260505025944 | 62 | 58 | 0.0 | 0.9 | 0.00 | 0.00 | 0.00 | 62 | 1011.7 |
| 20260505025441 | 62 | 111 | 0.0 | 0.0 | 0.00 | 0.00 | 0.00 | 61 | 1011.8 |
| 20260505024940 | 62 | 111 | 0.0 | 0.0 | 0.00 | 0.00 | 0.00 | 60 | 1011.8 |
| 20260505024437 | 63 | 111 | 0.0 | 0.0 | 0.00 | 0.00 | 0.00 | 61 | 1011.9 |
| 20260505023934 | 63 | 111 | 0.0 | 0.0 | 0.00 | 0.00 | 0.00 | 59 | 1011.9 |
| 20260505023431 | 63 | 112 | 0.0 | 0.0 | 0.00 | 0.00 | 0.00 | 59 | 1011.8 |
| 20260505022928 | 63 | 111 | 0.0 | 0.9 | 0.00 | 0.00 | 0.00 | 59 | 1012.0 |
| 20260505022426 | 62 | 75 | 0.0 | 0.0 | 0.00 | 0.00 | 0.00 | 60 | 1011.9 |
| 20260505021923 | 63 | 74 | 0.0 | 0.0 | 0.00 | 0.00 | 0.00 | 59 | 1011.8 |
| 20260505021419 | 63 | 74 | 0.0 | 0.0 | 0.00 | 0.00 | 0.00 | 59 | 1011.8 |
| 20260505020915 | 63 | 74 | 0.0 | 0.0 | 0.00 | 0.00 | 0.00 | 59 | 1011.8 |
| 20260505020410 | 63 | 75 | 0.0 | 0.0 | 0.00 | 0.00 | 0.00 | 58 | 1011.8 |
| 20260505015908 | 64 | 66 | 0.0 | 0.0 | 0.00 | 0.00 | 0.00 | 56 | 1011.8 |
| 20260505015405 | 64 | 111 | 0.0 | 0.0 | 0.00 | 0.00 | 0.00 | 56 | 1011.7 |
| 20260505014902 | 64 | 111 | 0.0 | 0.9 | 0.00 | 0.00 | 0.00 | 56 | 1011.8 |
| 20260505014359 | 64 | 111 | 0.0 | 0.9 | 0.00 | 0.00 | 0.00 | 56 | 1011.7 |
| 20260505013855 | 64 | 116 | 0.0 | 1.7 | 0.00 | 0.00 | 0.00 | 57 | 1011.7 |
| 20260505013352 | 64 | 95 | 0.0 | 0.0 | 0.00 | 0.00 | 0.00 | 57 | 1011.7 |
| 20260505012851 | 64 | 95 | 0.0 | 0.0 | 0.00 | 0.00 | 0.00 | 55 | 1011.6 |
| 20260505012349 | 64 | 95 | 0.0 | 0.0 | 0.00 | 0.00 | 0.00 | 55 | 1011.7 |
| 20260505011844 | 64 | 97 | 0.0 | 0.0 | 0.00 | 0.00 | 0.00 | 55 | 1011.5 |
| 20260505011341 | 65 | 97 | 0.0 | 0.0 | 0.00 | 0.00 | 0.00 | 54 | 1011.6 |
| 20260505010837 | 65 | 96 | 0.0 | 0.9 | 0.00 | 0.00 | 0.00 | 54 | 1011.4 |
| 20260505010333 | 65 | 96 | 0.0 | 0.0 | 0.00 | 0.00 | 0.00 | 55 | 1011.5 |
| 20260505005830 | 65 | 96 | 0.0 | 0.0 | 0.00 | 0.00 | 0.00 | 54 | 1011.4 |
| 20260505005327 | 66 | 96 | 0.0 | 0.0 | 0.00 | 0.00 | 0.00 | 53 | 1011.3 |
| 20260505004824 | 66 | 96 | 0.0 | 0.0 | 0.00 | 0.00 | 0.00 | 53 | 1011.3 |
| 20260505004320 | 67 | 97 | 0.0 | 0.9 | 0.00 | 0.00 | 0.00 | 52 | 1011.3 |
| 20260505003818 | 67 | 108 | 0.0 | 0.9 | 0.00 | 0.00 | 0.00 | 51 | 1011.2 |
| 20260505003315 | 67 | 114 | 0.0 | 0.9 | 0.00 | 0.00 | 0.00 | 50 | 1011.3 |
| 20260505002811 | 68 | 112 | 0.0 | 0.9 | 0.00 | 0.00 | 0.00 | 50 | 1011.3 |
| 20260505002308 | 68 | 112 | 0.0 | 0.9 | 0.00 | 0.00 | 0.00 | 49 | 1011.2 |
| 20260505001806 | 68 | 99 | 0.9 | 0.9 | 0.00 | 0.00 | 0.00 | 47 | 1011.1 |
| 20260505001303 | 68 | 129 | 0.9 | 1.7 | 0.00 | 0.00 | 0.00 | 47 | 1011.1 |
| 20260505000800 | 69 | 97 | 0.0 | 0.9 | 0.00 | 0.00 | 0.00 | 48 | 1011.2 |
| 20260505000258 | 69 | 88 | 0.9 | 0.9 | 0.00 | 0.00 | 0.00 | 46 | 1011.5 |
| 20260504235754 | 69 | 107 | 0.0 | 0.9 | 0.00 | 0.00 | 0.00 | 46 | 1011.2 |
| 20260504235250 | 69 | 119 | 0.9 | 0.9 | 0.00 | 0.00 | 0.00 | 45 | 1011.1 |
| 20260504234748 | 70 | 109 | 0.0 | 0.9 | 0.00 | 0.00 | 0.00 | 45 | 1011.0 |
| 20260504234245 | 70 | 109 | 0.0 | 0.9 | 0.00 | 0.00 | 0.00 | 45 | 1011.0 |
| 20260504233741 | 70 | 107 | 0.0 | 0.9 | 0.00 | 0.00 | 0.00 | 45 | 1011.1 |
| 20260504233237 | 70 | 83 | 0.0 | 0.9 | 0.00 | 0.00 | 0.00 | 45 | 1010.9 |
| 20260504232735 | 71 | 95 | 0.0 | 0.9 | 0.00 | 0.00 | 0.00 | 45 | 1011.0 |
| 20260504232231 | 71 | 93 | 0.9 | 0.9 | 0.00 | 0.00 | 0.00 | 42 | 1011.1 |
| 20260504231728 | 71 | 100 | 0.0 | 0.9 | 0.00 | 0.00 | 0.00 | 43 | 1011.0 |
| 20260504231225 | 71 | 172 | 0.9 | 1.7 | 0.00 | 0.00 | 0.00 | 41 | 1011.1 |
| 20260504230721 | 72 | 65 | 0.0 | 0.9 | 0.00 | 0.00 | 0.00 | 44 | 1010.9 |
| 20260504230220 | 72 | 130 | 0.0 | 0.9 | 0.00 | 0.00 | 0.00 | 41 | 1011.0 |
| 20260504225718 | 72 | 127 | 0.0 | 1.7 | 0.00 | 0.00 | 0.00 | 42 | 1010.9 |
| 20260504225214 | 72 | 101 | 0.0 | 0.9 | 0.00 | 0.00 | 0.00 | 41 | 1011.0 |
| 20260504224711 | 72 | 97 | 0.9 | 0.9 | 0.00 | 0.00 | 0.00 | 40 | 1011.1 |
| 20260504224209 | 73 | 62 | 0.0 | 0.9 | 0.00 | 0.00 | 0.00 | 42 | 1011.2 |
| 20260504223705 | 73 | 273 | 0.9 | 1.7 | 0.00 | 0.00 | 0.00 | 41 | 1011.0 |
| 20260504223200 | 73 | 4 | 0.9 | 1.7 | 0.00 | 0.00 | 0.00 | 40 | 1010.8 |
| 20260504222658 | 73 | 111 | 0.9 | 0.9 | 0.00 | 0.00 | 0.00 | 42 | 1010.8 |
| 20260504222154 | 73 | 86 | 0.9 | 2.6 | 0.00 | 0.00 | 0.00 | 40 | 1010.9 |
| 20260504221652 | 74 | 93 | 0.9 | 1.7 | 0.00 | 0.00 | 0.00 | 42 | 1010.9 |
| 20260504221149 | 74 | 47 | 0.0 | 0.9 | 0.00 | 0.00 | 0.00 | 41 | 1010.8 |
| 20260504220645 | 74 | 51 | 0.9 | 0.9 | 0.00 | 0.00 | 0.00 | 39 | 1010.9 |
| 20260504220143 | 75 | 126 | 0.0 | 0.9 | 0.00 | 0.00 | 0.00 | 40 | 1011.1 |
| 20260504215639 | 74 | 49 | 0.0 | 0.9 | 0.00 | 0.00 | 0.00 | 41 | 1011.0 |
| 20260504215136 | 74 | 72 | 0.9 | 0.9 | 0.00 | 0.00 | 0.00 | 39 | 1011.1 |
| 20260504214632 | 74 | 40 | 0.9 | 1.7 | 0.00 | 0.00 | 0.00 | 41 | 1010.9 |
| 20260504214130 | 74 | 125 | 0.9 | 0.9 | 0.00 | 0.00 | 0.00 | 40 | 1011.1 |
| 20260504213625 | 75 | 160 | 0.9 | 0.9 | 0.00 | 0.00 | 0.00 | 39 | 1011.2 |
| 20260504213122 | 74 | 65 | 0.9 | 1.7 | 0.00 | 0.00 | 0.00 | 40 | 1011.1 |
| 20260504212618 | 75 | 118 | 0.9 | 1.7 | 0.00 | 0.00 | 0.00 | 37 | 1011.3 |
| 20260504212115 | 75 | 22 | 0.9 | 1.7 | 0.00 | 0.00 | 0.00 | 40 | 1011.3 |
| 20260504211613 | 75 | 15 | 0.9 | 1.7 | 0.00 | 0.00 | 0.00 | 39 | 1011.1 |
| 20260504211109 | 75 | 267 | 0.9 | 2.6 | 0.00 | 0.00 | 0.00 | 37 | 1011.4 |
| 20260504210607 | 75 | 81 | 0.0 | 0.9 | 0.00 | 0.00 | 0.00 | 39 | 1011.2 |
| 20260504205601 | 75 | 44 | 0.9 | 1.7 | 0.00 | 0.00 | 0.00 | 39 | 1011.3 |
| 20260504205058 | 75 | 12 | 1.7 | 2.6 | 0.00 | 0.00 | 0.00 | 39 | 1011.4 |
| 20260504204556 | 75 | 134 | 0.9 | 1.7 | 0.00 | 0.00 | 0.00 | 38 | 1011.2 |
| 20260504204055 | 75 | 118 | 0.9 | 1.7 | 0.00 | 0.00 | 0.00 | 37 | 1011.2 |
| 20260504203553 | 76 | 138 | 0.9 | 1.7 | 0.00 | 0.00 | 0.00 | 36 | 1011.4 |
| 20260504203050 | 77 | 26 | 0.9 | 1.7 | 0.00 | 0.00 | 0.00 | 37 | 1011.6 |
| 20260504202545 | 78 | 179 | 1.7 | 2.6 | 0.00 | 0.00 | 0.00 | 36 | 1011.5 |
| 20260504202042 | 79 | 347 | 4.3 | 5.2 | 0.00 | 0.00 | 0.00 | 34 | 1011.3 |
| 20260504201539 | 79 | 47 | 0.9 | 0.9 | 0.00 | 0.00 | 0.00 | 37 | 1011.7 |
| 20260504201037 | 80 | 220 | 0.9 | 1.7 | 0.00 | 0.00 | 0.00 | 35 | 1011.5 |
| 20260504200533 | 78 | 167 | 0.9 | 1.7 | 0.00 | 0.00 | 0.00 | 36 | 1011.8 |
| 20260504200030 | 77 | 12 | 0.9 | 1.7 | 0.00 | 0.00 | 0.00 | 38 | 1011.8 |
| 20260504195526 | 78 | 132 | 0.0 | 0.9 | 0.00 | 0.00 | 0.00 | 35 | 1011.9 |
| 20260504195023 | 77 | 14 | 0.9 | 2.6 | 0.00 | 0.00 | 0.00 | 34 | 1012.0 |
| 20260504194519 | 78 | 22 | 0.9 | 4.3 | 0.00 | 0.00 | 0.00 | 36 | 1012.1 |
| 20260504194015 | 78 | 343 | 0.9 | 1.7 | 0.00 | 0.00 | 0.00 | 34 | 1012.3 |
| 20260504193512 | 78 | 192 | 0.9 | 1.7 | 0.00 | 0.00 | 0.00 | 34 | 1012.3 |
| 20260504193011 | 78 | 5 | 0.9 | 1.7 | 0.00 | 0.00 | 0.00 | 37 | 1012.6 |
| 20260504192509 | 78 | 17 | 0.9 | 1.7 | 0.00 | 0.00 | 0.00 | 36 | 1012.5 |
| 20260504192007 | 78 | 3 | 0.9 | 4.3 | 0.00 | 0.00 | 0.00 | 35 | 1012.7 |
| 20260504191504 | 77 | 348 | 1.7 | 1.7 | 0.00 | 0.00 | 0.00 | 35 | 1012.7 |
| 20260504190959 | 77 | 31 | 0.0 | 1.7 | 0.00 | 0.00 | 0.00 | 34 | 1012.7 |
| 20260504190455 | 77 | 3 | 0.0 | 2.6 | 0.00 | 0.00 | 0.00 | 39 | 1012.8 |
| 20260504185952 | 77 | 356 | 0.9 | 1.7 | 0.00 | 0.00 | 0.00 | 35 | 1012.8 |
| 20260504185449 | 77 | 246 | 0.0 | 0.9 | 0.00 | 0.00 | 0.00 | 35 | 1012.8 |
| 20260504184945 | 77 | 1 | 0.0 | 1.7 | 0.00 | 0.00 | 0.00 | 36 | 1013.0 |
| 20260504184441 | 76 | 294 | 1.7 | 1.7 | 0.00 | 0.00 | 0.00 | 35 | 1012.8 |
| 20260504183937 | 76 | 288 | 0.9 | 1.7 | 0.00 | 0.00 | 0.00 | 35 | 1012.9 |
| 20260504183434 | 75 | 3 | 1.7 | 2.6 | 0.00 | 0.00 | 0.00 | 38 | 1013.1 |
| 20260504182932 | 76 | 11 | 3.5 | 4.3 | 0.00 | 0.00 | 0.00 | 36 | 1013.2 |
| 20260504182429 | 77 | 292 | 0.9 | 1.7 | 0.00 | 0.00 | 0.00 | 35 | 1013.3 |
| 20260504181926 | 77 | 207 | 0.9 | 1.7 | 0.00 | 0.00 | 0.00 | 33 | 1013.1 |
| 20260504181423 | 76 | 4 | 0.0 | 1.7 | 0.00 | 0.00 | 0.00 | 41 | 1013.0 |
| 20260504180922 | 76 | 6 | 0.9 | 2.6 | 0.00 | 0.00 | 0.00 | 37 | 1013.2 |
| 20260504180420 | 77 | 237 | 0.9 | 1.7 | 0.00 | 0.00 | 0.00 | 34 | 1013.4 |
| 20260504175918 | 77 | 9 | 0.9 | 2.6 | 0.00 | 0.00 | 0.00 | 37 | 1013.4 |
| 20260504175415 | 76 | 9 | 1.7 | 2.6 | 0.00 | 0.00 | 0.00 | 34 | 1013.3 |
| 20260504174913 | 77 | 273 | 0.9 | 1.7 | 0.00 | 0.00 | 0.00 | 35 | 1013.6 |
| 20260504174410 | 77 | 17 | 0.9 | 1.7 | 0.00 | 0.00 | 0.00 | 34 | 1013.6 |
| 20260504173907 | 76 | 24 | 0.9 | 0.9 | 0.00 | 0.00 | 0.00 | 42 | 1013.6 |
| 20260504173403 | 75 | 24 | 0.9 | 0.9 | 0.00 | 0.00 | 0.00 | 36 | 1013.8 |
| 20260504172901 | 75 | 48 | 0.9 | 1.7 | 0.00 | 0.00 | 0.00 | 38 | 1013.6 |
| 20260504172357 | 75 | 12 | 0.0 | 0.9 | 0.00 | 0.00 | 0.00 | 33 | 1014.0 |
| 20260504171853 | 76 | 7 | 1.7 | 1.7 | 0.00 | 0.00 | 0.00 | 36 | 1014.0 |
| 20260504171351 | 75 | 29 | 0.9 | 1.7 | 0.00 | 0.00 | 0.00 | 43 | 1014.0 |
| 20260504170848 | 74 | 95 | 0.9 | 1.7 | 0.00 | 0.00 | 0.00 | 37 | 1014.2 |
| 20260504170344 | 74 | 13 | 0.9 | 4.3 | 0.00 | 0.00 | 0.00 | 37 | 1014.2 |
| 20260504160303 | 73 | 23 | 0.9 | 1.7 | 0.00 | 0.00 | 0.00 | 34 | 1015.1 |
| 20260504150728 | 69 | 329 | 0.0 | 0.9 | 0.00 | 0.00 | 0.00 | 48 | 1015.2 |
| 20260504150225 | 68 | 330 | 0.0 | 0.9 | 0.00 | 0.00 | 0.00 | 45 | 1015.3 |
| 20260504141154 | 64 | 54 | 0.9 | 1.7 | 0.00 | 0.00 | 0.00 | 52 | 1015.6 |
| 20260504140651 | 63 | 138 | 0.9 | 1.7 | 0.00 | 0.00 | 0.00 | 54 | 1015.7 |
| 20260504140146 | 63 | 128 | 0.0 | 0.9 | 0.00 | 0.00 | 0.00 | 54 | 1015.6 |
| 20260504130615 | 59 | 43 | 0.9 | 1.7 | 0.00 | 0.00 | 0.00 | 67 | 1015.8 |
| 20260504130112 | 58 | 55 | 0.0 | 1.7 | 0.00 | 0.00 | 0.00 | 68 | 1015.9 |
| 20260504110503 | 50 | 64 | 0.9 | 0.9 | 0.00 | 0.00 | 0.00 | 86 | 1016.3 |